Regional Weather Roundup
Issued by NWS San Angelo, TX

Home | Current Version | Previous Version | Text Only | Print | Product List | Glossary On
Versions: 1 2 3 4 5 6 7 8 9 10 11 12 13 14 15 16 17 18 19 20 21 22 23 24 25 26 27 28 29 30 31 32 33 34 35 36 37 38 39 40 41 42 43 44 45 46 47 48 49 50
928
ASUS44 KSJT 291411
RWRSJT
WEST CENTRAL TEXAS REGIONAL WEATHER ROUNDUP
NATIONAL WEATHER SERVICE SAN ANGELO TX
900 AM CDT FRI APR 29 2016

NOTE: "FAIR" INDICATES FEW OR NO CLOUDS BELOW 12,000 FEET WITH NO
SIGNIFICANT WEATHER AND/OR OBSTRUCTIONS TO VISIBILITY.

TXZ049-054-064>066-071>073-076>078-098-099-113-114-127-128-139-140-
154-155-168>170-291500
...LOCATIONS ACROSS WEST CENTRAL TEXAS...

CITY           SKY/WX    TMP DP  RH WIND       PRES   REMARKS
SAN ANGELO     PTSUNNY   75  67  76 SW15      29.71R
ABILENE        PTSUNNY   72  66  81 S17G28    29.68R HAZE
DYESS AFB      PTSUNNY   73  67  82 S21G26    29.67R
JUNCTION       CLOUDY    74  67  78 S6        29.73S HAZE
SWEETWATER     MOSUNNY   74  68  82 S22G28    29.70S
BROWNWOOD      CLOUDY    73  68  83 S8        29.73S HAZE
COLEMAN        CLOUDY    74  66  77 S9        29.72F
SONORA         CLOUDY    72  68  88 S9        29.77R FOG
OZONA          FAIR      73  68  83 S9        29.76R HAZE
BRADY          NOT AVBL
$$

TEXAS PANHANDLE/OKLAHOMA PANHANDLE

CITY           SKY/WX    TMP DP  RH WIND       PRES   REMARKS
AMARILLO       TSTM      49  47  93 NE23G32   29.74S
BORGER         RAIN      47  45  93 NE16G24   29.80R FOG
CANADIAN       CLOUDY    50  49  95 NE13G20   29.79R
DALHART        LGT RAIN  47  44  90 N13       29.84R
DUMAS          RAIN      44  44  99 NE25G41   29.77S WCI  35
GUYMON         NOT AVBL
HEREFORD       CLOUDY    50  50  98 NE20G26   29.75R
PAMPA          TSTM      48  46  95 E28G39    29.73S WCI  39
PERRYTON       CLOUDY    47  45  93 NE26G37   29.78  WCI  38
$$

SOUTHERN PANHANDLE/SOUTH PLAINS/ROLLING PLAINS

CITY           SKY/WX    TMP DP  RH WIND       PRES   REMARKS
LUBBOCK        PTSUNNY   70  63  78 SW17G23   29.68R
SNYDER           N/A     73  65  77 S21G26    29.69R
CHILDRESS      CLOUDY    62  59  90 NE7       29.68R
SEMINOLE       SUNNY     65  40  40 NW16G22   29.77R
$$

PERMIAN BASIN

CITY           SKY/WX    TMP DP  RH WIND       PRES   REMARKS
MIDLAND        SUNNY     73  45  36 W13       29.76R
ODESSA         SUNNY     71  44  37 W10       29.77R
WINK           SUNNY     69  38  32 W10       29.76R
$$

FAR WEST/SOUTHWEST MOUNTAINS/TRANS PECOS

CITY           SKY/WX    TMP DP  RH WIND       PRES   REMARKS
ALPINE         SUNNY     67  30  25 NW8       29.92R
DRYDEN           N/A     75  68  78 CALM      29.72R
EL PASO        SUNNY     58  19  22 W16       29.89R
FORT STOCKTON  SUNNY     68  35  29 W12       29.80R
GUADALUPE PASS SUNNY     55  25  31 W36G53    29.85R
MARFA          SUNNY     62  30  29 NW21      29.91R
PECOS          SUNNY     72  30  21 W15G22    29.79R
$$

DALLAS/FORT WORTH METROPLEX

CITY           SKY/WX    TMP DP  RH WIND       PRES   REMARKS
DFW AIRPORT    CLOUDY    77  71  82 S10       29.70R
FTW MEACHAM    CLOUDY    76  71  85 S7        29.70R HAZE
DAL-EXECUTIVE  CLOUDY    75  71  87 SE5       29.70S FOG
GRAND PRAIRIE  MOSUNNY   73  73 100 S7        29.72S FOG
ADDISON        CLOUDY    77  73  88 MISG      29.71S
MESQUITE       CLOUDY    73  73 100 SE7       29.71S FOG
LANCASTER      CLOUDY    74  70  88 SE7       29.71S FOG
$$

NORTH CENTRAL TEXAS

CITY           SKY/WX    TMP DP  RH WIND       PRES   REMARKS
SHRMAN/DENISON PTSUNNY   62  60  90 NE6       29.76S
GAINESVILLE    CLOUDY    67  65  96 CALM      29.77R FOG
BRIDGEPORT     CLOUDY    72  72 100 CALM      29.73R FOG
DENTON         CLOUDY    75  71  87 E3        29.71S
WAXAHACHIE     CLOUDY    73  73 100 SE8       29.72S FOG
GRANBURY       CLOUDY    77  70  80 S7        29.72R HAZE
$$

WESTERN NORTH TEXAS

CITY           SKY/WX    TMP DP  RH WIND       PRES   REMARKS
WICHITA FALLS  CLOUDY    64  62  93 E13       29.72R THUNDER
VERNON         CLOUDY    65  57  75 E17G24    29.69F
BRECKENRIDGE   CLOUDY    76  67  73 S16       29.69R HAZE
COMANCHE       CLOUDY    74  71  91 S9        29.73R
$$

CENTRAL AND SOUTH CENTRAL TEXAS

CITY           SKY/WX    TMP DP  RH WIND       PRES   REMARKS
AUSTIN/BERGSTM CLOUDY    78  74  87 S15       29.70R FOG
WACO           CLOUDY    77  73  87 S13       29.70R FOG
HILLSBORO      CLOUDY    75  72  91 S12       29.71S FOG
TEMPLE         CLOUDY    77  74  90 S16       29.71S FOG
KILLEEN-GRAY   CLOUDY    77  72  83 S14       29.70R
FORT HOOD      PTSUNNY   74  72  93 S12G22    29.69R
GEORGETOWN     PTSUNNY   79  72  78 S13G18    29.71R FOG
LAGO VISTA     CLOUDY    77  72  83 S9G20     29.74S HAZE
SAN MARCOS     CLOUDY    77  73  88 S12       29.72R FOG
NEW BRAUNFELS  CLOUDY    79  73  82 S15         N/A  HAZE
RANDOLPH AFB   CLOUDY    77  77 100 S10       29.71S
SAN ANTONIO    CLOUDY    77  72  84 S12       29.72R
STINSON        CLOUDY    79  73  82 SE8       29.69R HAZE
PLEASANTON     NOT AVBL
LA GRANGE        N/A     80  75  85 S14G22    29.71S HAZE
GIDDINGS       CLOUDY    76  73  87 S9G18     29.75F HAZE
$$

EAST TEXAS

CITY           SKY/WX    TMP DP  RH WIND       PRES   REMARKS
PARIS          CLOUDY    70  61  73 N5        29.76R
CLARKSVILLE    NOT AVBL
TYLER          CLOUDY    78  70  76 S12       29.75R
LONGVIEW       CLOUDY    77  69  76 S14       29.77R
PALESTINE      PTSUNNY   77  72  82 SE9G18    29.76R HAZE
NACOGDOCHES    PTSUNNY   75  70  83 S9G17     29.78R
$$

TEXAS HILL COUNTRY AND EDWARDS PLATEAU

CITY           SKY/WX    TMP DP  RH WIND       PRES   REMARKS
LLANO          PTSUNNY   75  72  88 CALM      29.74F FOG
HORSESHOE BAY  CLOUDY    76  71  83 S5        29.72S HAZE
KERRVILLE      CLOUDY    73  71  93 SE15      29.74S FOG
FREDERICKSBRG  CLOUDY    73  68  84 S6        29.74R HAZE
ROCKSPRINGS    FOG       70  70 100 S9        29.78R VSB 1/2
HONDO          CLOUDY    76  72  87 SE8       29.74R FOG
UVALDE         CLOUDY    73  72  95 E3        29.72R FOG
DEL RIO        CLOUDY    73  73 100 E12       29.67S FOG
$$

SOUTHEAST TEXAS

CITY           SKY/WX    TMP DP  RH WIND       PRES   REMARKS
COLLEGE STN    CLOUDY    77  72  84 S14       29.73S
CALDWELL       CLOUDY    77  73  88 SE18      29.74F FOG
CROCKETT       PTSUNNY   75  72  88 S10G17    29.79R
BRENHAM        CLOUDY    79  73  80 S15G22    29.74S
HUNTSVILLE     MOSUNNY   78  70  76 S9G21     29.75S
CONROE         MOSUNNY   76  71  85 SE13      29.77R
HOUSTON BUSH   MOSUNNY   76  70  82 S20G25    29.76S
HOUSTON HOBBY  PTSUNNY   77  72  84 SE13G22   29.76S
PERLAND        CLOUDY    78  72  81 S14G21    29.78F
WHARTON        MOSUNNY   77  72  86 SE15      29.76S
$$

THE UPPER TEXAS COAST

CITY           SKY/WX    TMP DP  RH WIND       PRES   REMARKS
ORANGE         PTSUNNY   77  70  78 S10G20    29.84S
PORT ARTHUR    PTSUNNY   78  72  81 SE16G22   29.81S
GALVESTON      MOSUNNY   77  75  93 SE16      29.80S FOG
ANGLETON       PTSUNNY   79  72  79 S23G30    29.77S
BAY CITY       CLOUDY    79  74  85 SE14G20   29.76S
$$

TEXAS COASTAL BEND, RIO GRANDE PLAINS DEEP SOUTH TEXAS

CITY           SKY/WX    TMP DP  RH WIND       PRES   REMARKS
VICTORIA       CLOUDY    77  73  87 SE18G25   29.72S FOG
BEEVILLE       CLOUDY    80  77  90 SE14G24   29.69S
ROCKPORT       CLOUDY    81  74  79 SE23G32   29.70F
PORT ARANSAS   CLOUDY    78  76  94 SE17G25   29.71R
PORT LAVACA    CLOUDY    77  74  90 SE18G24   29.73F FOG
CORPUS CHRISTI CLOUDY    80  75  84 SE26      29.69R
KINGSVILLE NAS CLOUDY    80  79  96 SE21G29   29.68R FOG
COTULLA        CLOUDY    80  73  79 S7        29.69R
LAREDO         CLOUDY    80  73  79 SE16      29.67R
BROWNSVILLE    CLOUDY    79  76  90 SE15G25   29.70R
PORT ISABEL    CLOUDY    80  77  90 SE22G30   29.68R FOG
HEBBRONVILLE   PTSUNNY   79  73  80 S18G24    29.69R HAZE
MCALLEN        CLOUDY    83  76  79 SE16G25   29.68R HAZE
WESLACO        CLOUDY    81  75  81 SE20G26   29.66S HAZE
FALFURRIAS     CLOUDY    82  75  78 SE18G24   29.66F
EDINBURG       CLOUDY    83  75  78 SE15G22   29.68R HAZE
$$




USA.gov is the U.S. government's official web portal to all federal, state and local government web resources and services.